カタログに戻る

DMSP 5D-2 F13 DEB

運用中SSO
NORAD 40681·DEBRIS·🇺🇸 United States

打ち上げ Mar 24, 1995 から Vandenberg Space Force Base

Loading…

次のパス (今後24時間)

TLE

最新Source: Space-Track

元期: Sep 13, 2026, 08:04 UTC

1 40681U 95015FV  26256.33639885  .00002339  00000-0  78865-3 0  9999
2 40681  98.6967 293.4692 0006245 148.2398 211.9166 14.37966663593388

AllMySatでDMSP 5D-2 F13 DEBをリアルタイム追跡

Download on the App Store